Вернуться в каталог

CZ-6A DEB

АктивенPO
NORAD 61827·DEBRIS·🇨🇳 China

Запущен Aug 6, 2024 с Taiyuan Satellite Launch Center

Loading…

Ближайшие Пролёты (ближайшие 24 часа)

TLE

СвежийSource: Space-Track

Эпоха: Sep 14, 2026, 09:40 UTC

1 61827U 24140ACT 26257.40342311  .00001988  00000-0  10459-2 0  9992
2 61827  88.8551 253.6063 0099704 309.2379  49.9988 14.11210873103221

Отслеживайте CZ-6A DEB в реальном времени с AllMySat

Download on the App Store